This is the latest recevied weather packets stored in our database for station/object HA3KHB-6. If no packets are shown the sender has not sent any weather packets the latest 10 day(s).
| Time | Temp. | Humidity | Pressure | Rain* | Wind** | Luminosity | Snow |
|---|---|---|---|---|---|---|---|
| 1777574712 | 8.89° C | 85% | 428 hPa | - | - | - | - |
| 1777574112 | 9.44° C | 79% | 606.6 hPa | - | - | - | - |
| 1777573512 | 10° C | 74% | 746.5 hPa | - | - | - | - |
| 1777572911 | 10° C | 71% | 883.6 hPa | - | - | - | - |
| 1777572311 | 10° C | 69% | 960.4 hPa | - | - | - | - |
| 1777571711 | 10.56° C | 70% | 1366.2 hPa | - | - | - | - |
| 1777571114 | 10.56° C | 71% | 940.9 hPa | - | - | - | - |
| 1777570514 | 11.11° C | 67% | 1085.7 hPa | - | - | - | - |
| 1777569914 | 11.11° C | 67% | 1140.1 hPa | - | - | - | - |
| 1777569314 | 11.67° C | 68% | 1130.4 hPa | - | - | - | - |
| 1777568714 | 11.67° C | 59% | 1498 hPa | - | - | - | - |
| 1777568113 | 12.22° C | 50% | 1504.7 hPa | - | - | - | - |
| 1777567513 | 13.89° C | 44% | 1508.3 hPa | - | - | - | - |
| 1777566913 | 15.56° C | 45% | 1512.7 hPa | - | - | - | - |
| 1777566314 | 15° C | 40% | 1511.2 hPa | - | - | - | - |
| 1777565713 | 17.22° C | 37% | 1517.3 hPa | - | - | - | - |
| 1777565113 | 18.89° C | 38% | 1520.7 hPa | - | - | - | - |
| 1777564513 | 19.44° C | 34% | 1522.6 hPa | - | - | - | - |
| 1777563913 | 22.22° C | 37% | 1529.3 hPa | - | - | - | - |
| 1777563313 | 21.11° C | 34% | 1527.5 hPa | - | - | - | - |
| 1777562713 | 21.11° C | 31% | 1526.5 hPa | - | - | - | - |
| 1777562113 | 22.78° C | 33% | 1531.9 hPa | - | - | - | - |
| 1777561513 | 23.89° C | 34% | 1533.8 hPa | - | - | - | - |
| 1777560913 | 23.89° C | 36% | 1533.5 hPa | - | - | - | - |
| 1777560312 | 24.44° C | 35% | 1534.9 hPa | - | - | - | - |
* Rain since midnight (hover to see other rain measurements)
** Current wind speed in m/s (hover to see current wind gust speed)